STARLINK-1903, 46764

Orbit data source: Space-Track

STARLINK-1903, 46764 is a payload satellite owned by SpaceX/Seattle (US) in LEO that was launched on Sat, 24 Oct 2020 UTC via an FALCON 9 launch vehicle from the Air Force Eastern Test Range (AFETR). Payloads include a variety of satellites, spacecraft, and rockets equipped with specific instruments for various scientific and technological missions. These include communications satellites like Starlink; space stations such as the ISS; scientific satellites like the Hubble; Earth observation satellites from companies like Planet Labs, Umbra, and HawkEye 360; GPS; miniature CubeSats for education and research; and military/defense satellites.

Loading next visibility...
STARLINK-1903 details
Identifier
46764, 2020-074AB
Orbit
LEO
Last TLE update12 hours ago
Origin
Flag of USSpaceX/Seattle (US)
ManufacturerSpaceX/Seattle
MissionOperational Commercial Communications
Bus & MotorSTARLINK, Unknown motor
Mass260 kg wet, ~248 kg dry
Launch date (UTC)
2020-10-24 (4 years ago)
Launch vehicle
FALCON 9
Launch site
Air Force Eastern Test Range (AFETR)
Object type
Payload
Rocket body
Debris
Shape & HBRBox + 1 Pan, 8.86 m
Radar Cross Section13.562 m², Large (>1 m²)

Expand to show TLE details & history

TLE from 12 hours ago
0 STARLINK-1903
1 46764U 20074AB  24338.91668981  .00371666  00000-0  19258-1 0  9993
2 46764  53.0507 244.1833 0001251 105.0413 217.0596 15.13935495  5692
Epoch: 2024-12-03T22:00Z
Definitive object data (Epoch: 2024-12-03T22:00:01.999Z)
Latitude-29.61024°
Longitude175.79724°
Altitude533.881 km
Speed7.595 km/s
True Right ascension14h 36m 05s
True Declination-29° 27' 29"
Sunlit
Object was in daylight at TLE epoch
Visualization TLE readout
Latitude43.57081°
Longitude-115.85864°
Altitude526.976 km
Speed7.605 km/s
Apparent Right ascension19h 17m 20s
Apparent Declination3° 50' 52"
Sunlit
Object is in daylight
Visualization observer readout
Local Sidereal Time07:25:22
Azimuth2.898° NNE
Elevation-46.197°
Doppler factor1
Orbital elements
Apogee altitude525.348 km
Perigee altitude523.621 km
Semi-major axis6,902.621 km
Eccentricity0.0001251
Inclination53.0507°
RAAN244.1833°
Arg. of periapsis105.0413°
True anomaly217.05096°
Mean anomaly217.0596°
Eccentric anomaly217.05528°
Mean motion3.78462 °/min
BSTAR0.019258
Orbital period95.12 mins
Loading maneuver chart data...

STARLINK-1903 Visibility forecast

Observer location: undefined°, undefined

Span
Click to sort rows by Start time (UTC) header in descending order
Start Az.
Max El. time (UTC)
Max El. Az.
Max El.
End time (UTC)
End Az.
7 mins2024-12-04 20:31:04.870Z225.935° WSW2024-12-04 20:34:04.870Z210.974° SW42.756°2024-12-04 20:38:04.870Z51.868° ENE
4 mins2024-12-04 22:12:04.870Z301.328° NW2024-12-04 22:14:04.870Z341.212° N19.782°2024-12-04 22:16:04.870Z18.207° NNE
4 mins2024-12-05 01:33:04.870Z355.771° N2024-12-05 01:34:04.870Z14.992° NNE17.765°2024-12-05 01:37:04.870Z65.537° ENE
6 mins2024-12-05 03:11:04.870Z313.924° NW2024-12-05 03:14:04.870Z85.388° E43.62°2024-12-05 03:17:04.870Z125.057° SE
|